Location: Tel Aviv
(32.0670°N, 34.7670°E)
Time: 10:32:44
(UTC+02:00)

Explorer 7 - Visible Passes

Search period start: 28 January 2022 00:00
Search period end: 07 February 2022 00:00
Orbit: 483 x 674 km, 50.3° (Epoch: 27 January)

Date Brightness Start Highest point End Pass type
(mag) Time Alt. Az. Time Alt. Az. Time Alt. Az.
31 Jan 9.7 05:02:32 10° SSE 05:04:30 14° SE 05:06:30 10° E visible
01 Feb 8.8 05:05:01 10° S 05:08:09 25° SE 05:11:21 10° ENE visible
02 Feb 7.5 05:08:37 12° SSW 05:11:51 48° SE 05:15:35 10° ENE visible
03 Feb 6.5 05:13:38 26° SW 05:15:38 88° NW 05:19:31 10° NE visible
04 Feb 6.9 05:18:19 34° W 05:19:29 47° NW 05:23:15 10° NE visible
05 Feb 7.6 05:22:44 26° NW 05:23:26 28° NW 05:26:49 10° NNE visible
06 Feb 8.2 05:26:56 18° NW 05:27:28 18° NNW 05:30:14 10° NNE visible
